Location: Seven Kings
(51.5667°N, 0.1000°E)
Time: 12:21:05
(UTC+00:00)

Meteor 2-3 Rocket - Pass Details

Date: 29 October 2020
Orbit: 842 x 885 km, 81.2° (Epoch: 24 November)

Event Time Altitude Azimuth Distance (km) Brightness Sun altitude
Rises 19:53:34 0° 344° (NNW) 3,459 7.3 -30.8°
Reaches altitude 10° 19:56:02 10° 340° (NNW) 2,523 6.6 -31.2°
Maximum altitude 20:01:37 56° 264° (W) 1,032 4.3 -32.0°
Enters shadow 20:01:54 56° 252° (WSW) 1,038 4.2 -32.0°
